{"data":{"norad_id":67329,"epoch":"2026-05-25T00:36:01.628640Z","epoch_age_seconds":83450,"freshness":"FRESH","line1":"1 67329U 26002AA  26145.02501885  .00025831  00000+0  94478-3 0  9997","line2":"2 67329  43.0005 254.1464 0002435 278.6966  81.3610 15.27583562 22732","mean_motion":15.27583562,"eccentricity":0.0002435,"inclination_deg":43.0005,"raan_deg":254.1464,"arg_perigee_deg":278.6966,"mean_anomaly_deg":81.361,"bstar":0.00094478,"rev_number":2273,"period_min":94.266528903641,"perigee_km":481.36773393372,"apogee_km":484.7091263682,"semimajor_km":6861.175430151,"source":"CELESTRAK","updated_at":"2026-05-25T13:38:21.520265Z"}}